[[{"header":{"parameterUnit":"m.s-1","parameterCategory":1,"la1":30.2991,"la2":30.254,"lo1":-89.0895,"lo2":-89.0444,"dy":0.0017,"dx":0.0017,"nx":28,"ny":28,"refTime":"2025-03-11T09:00:00:Z","depth":0,"parameterNumber":2,"parameterNumberName":"U-component_of_WINDS"},"data":[0,0,0,0,0,0,0,0,0,0,0,0,0,0,0,0,0,0,0,0,0,0,0,0,0,0,0,0,0,0,0,0,0,0,0,0,0,0,0,0,0,0,0,0,0,0,0,0,0,0,0,0,0,0,0,0,0,0,1.8133,1.8134,0,1.8175,1.8175,1.8175,1.8179,1.8179,1.8178,1.8178,1.8224,1.8225,1.8227,0,0,0,0,0,0,0,0,0,0,0,0,0,1.8061,1.8063,1.8133,1.8134,1.8134,1.8174,1.8175,1.8176,1.8179,1.8179,1.8178,1.8178,1.8223,1.8225,1.8227,0,0,0,0,0,0,0,0,0,0,0,0,0,1.8097,1.8063,1.8133,1.8141,1.8142,1.8174,1.8175,1.8176,1.8179,1.8179,1.8178,1.8177,1.8222,1.8225,1.8227,1.8256,0,0,1.8235,1.8236,0,0,0,0,0,0,0,0,1.8095,1.8099,1.8139,1.814,1.8141,1.8171,1.8166,1.8203,1.8179,1.8165,1.8178,1.8177,1.8207,1.821,1.822,1.8258,1.826,1.8235,1.8236,1.8237,1.8238,0,0,0,0,0,0,0,1.8092,1.8098,1.815,1.814,1.8141,1.8144,1.8148,1.8173,1.8189,1.8166,1.8167,1.8171,1.8207,1.8217,1.8221,1.8261,1.8235,1.8237,1.8238,1.8239,1.8327,1.8327,0,0,0,0,0,0,1.8088,1.8095,1.8148,1.8151,1.8116,1.8145,1.815,1.8162,1.8189,1.8192,1.8172,1.8171,1.8214,1.8218,1.8223,1.8259,1.8237,1.824,1.8241,1.8326,1.8327,1.8328,0,0,0,0,0,0,1.8086,1.8092,1.8147,1.8123,1.813,1.8147,1.8161,1.8163,1.8173,1.8193,1.8196,1.8179,1.8213,1.8219,1.8248,1.826,1.8241,1.8243,1.8325,1.8326,1.8327,1.8331,0,0,0,0,0,0,1.8084,1.8092,1.8102,1.8123,1.8132,1.817,1.8162,1.8165,1.8177,1.8177,1.8201,1.8204,1.8213,1.8244,1.825,1.8263,1.8245,1.8324,1.8325,1.8327,1.833,1.8332,1.8334,0,0,0,0,0,1.8082,1.8101,1.8102,1.8108,1.8144,1.817,1.8175,1.8184,1.8178,1.8189,1.8202,1.8203,1.8258,1.8247,1.8254,1.8268,1.8323,1.8325,1.8327,1.8329,1.8332,1.8334,0,0,0,0,0,0,1.8081,1.8104,1.8105,1.8133,1.8149,1.8171,1.8184,1.8187,1.8206,1.8205,1.8217,1.8222,1.8251,1.8263,1.825,1.8298,1.829,1.8293,1.8289,1.8292,1.8294,1.8291,1.8247,0,0,0,0,0,1.8084,1.8102,1.8122,1.8144,1.8153,1.8167,1.8179,1.8185,1.8203,1.821,1.8225,1.8244,1.8266,1.828,1.8301,1.8332,1.8338,1.8345,1.8347,1.8349,1.8352,1.8371,1.8374,1.8334,1.8334,1.8334,0,0,1.8091,1.8106,1.8116,1.8145,1.8158,1.8178,1.8173,1.8194,1.821,1.8214,1.8242,1.8254,1.8276,1.8306,1.832,1.8316,1.8365,1.8352,1.8353,1.8355,1.8373,1.8377,1.838,1.8335,1.8335,1.8335,0,0,1.8113,1.8125,1.8146,1.816,1.818,1.819,1.8195,1.8217,1.8225,1.8253,1.8257,1.8276,1.8313,1.8329,1.8342,1.8372,1.8374,1.8379,1.839,1.8408,1.8411,1.8414,1.8426,1.843,1.8381,1.8381,1.8381,0,1.8118,1.8147,1.8156,1.8177,1.819,1.8195,1.8217,1.823,1.8257,1.8267,1.8262,1.8309,1.8324,1.8359,1.8366,1.8377,1.8384,1.8375,1.841,1.8413,1.8416,1.8427,1.8431,1.8382,1.8382,1.8382,1.8382,0,1.8154,1.8174,1.8188,1.8213,1.8228,1.825,1.8263,1.8278,1.8283,1.8294,1.8323,1.8342,1.8367,1.8376,1.8381,1.8412,1.8409,1.8407,1.8399,1.842,1.8431,1.8435,1.8382,1.8382,1.8382,1.8382,0,0,1.8175,1.8206,1.8211,1.8223,1.8247,1.8264,1.8287,1.8311,1.8323,1.8342,1.8362,1.8394,1.8393,1.8408,1.8415,1.8431,1.8455,1.8428,1.8428,1.8432,1.8491,1.8492,1.8497,1.8457,1.8458,1.8459,1.849,0,1.82,1.8238,1.8248,1.8282,1.8302,1.8308,1.8328,1.8346,1.8357,1.8377,1.839,1.8412,1.8409,1.8418,1.8434,1.8449,1.8467,1.8447,1.8477,1.8478,1.8471,1.8502,1.8503,1.8531,1.8494,1.8494,1.8495,0,1.8233,1.8252,1.8288,1.8311,1.832,1.8337,1.8361,1.8379,1.8401,1.8408,1.8425,1.8432,1.8457,1.8449,1.8485,1.8471,1.8484,1.8494,1.8495,1.8498,1.8487,1.8506,1.854,1.8545,1.8502,1.8501,1.8501,0,1.8245,1.8281,1.8307,1.8317,1.8344,1.8357,1.8369,1.839,1.8404,1.8426,1.8435,1.846,1.8473,1.8493,1.8507,1.8499,1.8542,1.8534,1.855,1.855,1.8558,1.8557,1.8595,1.8567,1.8567,1.8567,1.8567,0,1.8272,1.8293,1.8313,1.8329,1.8354,1.8366,1.8391,1.8404,1.8423,1.8442,1.845,1.8468,1.8485,1.8507,1.8518,1.8547,1.8553,1.8561,1.8563,1.856,1.8559,1.8568,1.8566,1.8568,1.8568,1.8568,1.8567,0,1.8289,1.8303,1.8332,1.8356,1.8363,1.838,1.8401,1.8418,1.8431,1.8456,1.8462,1.8482,1.8508,1.8524,1.8557,1.8564,1.8596,1.8598,1.8589,1.859,1.8605,1.8603,1.8649,1.8656,1.8624,1.8624,1.8625,0,1.8305,1.8322,1.8348,1.8361,1.8373,1.8395,1.841,1.8423,1.8439,1.8465,1.8479,1.8506,1.8527,1.8569,1.8587,1.8613,1.8615,1.863,1.8619,1.8616,1.8616,1.8614,1.8617,1.8631,1.8632,1.8632,1.8632,0,1.8331,1.8338,1.8358,1.8382,1.8399,1.8419,1.8438,1.8449,1.8466,1.8483,1.851,1.8526,1.856,1.8587,1.8614,1.8629,1.8634,1.8636,1.8641,1.8637,1.8631,1.8634,1.8593,1.8634,1.8634,1.8634,1.8634,1.8634,1.8349,1.8364,1.8385,1.8408,1.8425,1.8443,1.846,1.8475,1.8496,1.8524,1.8532,1.856,1.8583,1.862,1.8635,1.8658,1.8656,1.8663,1.8665,1.8667,1.8667,1.8627,1.8664,1.8664,1.8664,1.8664,1.8664,0,1.8376,1.839,1.8411,1.8438,1.8457,1.8459,1.8482,1.8497,1.8521,1.8542,1.8563,1.8594,1.8621,1.8641,1.8669,1.8683,1.8686,1.869,1.8689,1.8692,1.8667,1.866,1.8687,1.8687,1.8687,1.8687,1.8687,1.8687,1.8392,1.8419,1.8428,1.8464,1.8478,1.8505,1.8517,1.8535,1.8552,1.8585,1.8607,1.862,1.8642,1.8671,1.8696,1.8701,1.8711,1.8714,1.872,1.8697,1.8694,1.8691,1.8685,1.8716,1.8716,1.8743,1.8744,1.8744]},{"header":{"parameterUnit":"m.s-1","parameterCategory":1,"la1":30.2991,"la2":30.254,"lo1":-89.0895,"lo2":-89.0444,"dy":0.0017,"dx":0.0017,"nx":28,"ny":28,"refTime":"2025-03-11T09:00:00:Z","depth":0,"parameterNumber":3,"parameterNumberName":"V-component_of_WINDS"},"data":[0,0,0,0,0,0,0,0,0,0,0,0,0,0,0,0,0,0,0,0,0,0,0,0,0,0,0,0,0,0,0,0,0,0,0,0,0,0,0,0,0,0,0,0,0,0,0,0,0,0,0,0,0,0,0,0,0,0,3.3787,3.3788,0,3.3825,3.3825,3.3826,3.3843,3.3843,3.3843,3.3843,3.3878,3.3879,3.388,0,0,0,0,0,0,0,0,0,0,0,0,0,3.3725,3.3726,3.3787,3.3788,3.3788,3.3825,3.3825,3.3826,3.3843,3.3843,3.3843,3.3843,3.3877,3.3879,3.388,0,0,0,0,0,0,0,0,0,0,0,0,0,3.3756,3.3727,3.3787,3.3801,3.3803,3.3825,3.3825,3.3826,3.3843,3.3843,3.3843,3.3843,3.3877,3.3878,3.388,3.3889,0,0,3.3884,3.3885,0,0,0,0,0,0,0,0,3.3755,3.3759,3.3799,3.38,3.3802,3.3829,3.3816,3.3847,3.3843,3.3828,3.3843,3.3843,3.3861,3.3864,3.3871,3.3891,3.3892,3.3884,3.3885,3.3886,3.3886,0,0,0,0,0,0,0,3.3752,3.3757,3.3802,3.3799,3.3801,3.3804,3.3808,3.3822,3.3844,3.3829,3.383,3.3835,3.3862,3.387,3.3872,3.3893,3.3884,3.3886,3.3886,3.3887,3.392,3.392,0,0,0,0,0,0,3.3749,3.3755,3.3801,3.3803,3.3778,3.3805,3.381,3.3821,3.3844,3.3848,3.3835,3.3836,3.3867,3.387,3.3873,3.3885,3.3886,3.3887,3.3888,3.392,3.392,3.392,0,0,0,0,0,0,3.3747,3.3753,3.3799,3.378,3.3786,3.3806,3.3818,3.3821,3.3829,3.3849,3.3852,3.3839,3.3867,3.3871,3.3885,3.3886,3.3888,3.3889,3.392,3.392,3.392,3.3908,0,0,0,0,0,0,3.3745,3.3752,3.3757,3.378,3.3787,3.3812,3.3818,3.3822,3.3832,3.3833,3.3853,3.3856,3.3868,3.3883,3.3886,3.3888,3.389,3.392,3.392,3.392,3.3909,3.3908,3.3907,0,0,0,0,0,3.3743,3.3752,3.3757,3.3763,3.3794,3.3812,3.3816,3.383,3.3832,3.3836,3.3848,3.3856,3.3885,3.3884,3.3888,3.3891,3.392,3.392,3.392,3.3909,3.3908,3.3907,0,0,0,0,0,0,3.3728,3.3755,3.3761,3.3778,3.3793,3.3815,3.3821,3.3829,3.3842,3.3843,3.3858,3.3862,3.3874,3.3884,3.3882,3.39,3.3903,3.3904,3.3893,3.3893,3.3892,3.3889,3.3891,0,0,0,0,0,3.3727,3.3741,3.3763,3.3776,3.3783,3.38,3.3809,3.3818,3.3833,3.3839,3.3853,3.3866,3.3878,3.3886,3.3898,3.391,3.3914,3.3913,3.3913,3.3912,3.3912,3.3918,3.3917,3.392,3.392,3.392,0,0,3.3725,3.3741,3.3749,3.3773,3.3785,3.3798,3.3806,3.3819,3.3827,3.3841,3.3855,3.3865,3.388,3.3893,3.3899,3.3901,3.3912,3.3912,3.3911,3.3912,3.3918,3.3917,3.3917,3.392,3.392,3.392,0,0,3.3726,3.3741,3.3752,3.3764,3.3783,3.3794,3.3797,3.3817,3.3825,3.3839,3.3849,3.3859,3.388,3.389,3.3898,3.3901,3.3908,3.3905,3.3901,3.3906,3.3906,3.3906,3.3906,3.3906,3.3905,3.3905,3.3905,0,3.3721,3.3741,3.3757,3.3769,3.3778,3.3792,3.3802,3.3812,3.3834,3.3839,3.3842,3.3867,3.3879,3.3893,3.3894,3.39,3.3902,3.3903,3.3905,3.3905,3.3905,3.3905,3.3905,3.3905,3.3905,3.3905,3.3905,0,3.3732,3.3746,3.3752,3.3773,3.3784,3.3795,3.381,3.3818,3.3826,3.3837,3.385,3.3864,3.3879,3.3882,3.389,3.3897,3.3898,3.3902,3.3906,3.3904,3.3904,3.3905,3.3904,3.3904,3.3904,3.3904,0,0,3.3727,3.3755,3.3757,3.3766,3.3787,3.3797,3.3808,3.3823,3.3829,3.3842,3.3851,3.3867,3.3871,3.388,3.3889,3.3893,3.3893,3.3897,3.3898,3.3895,3.39,3.3896,3.3896,3.3898,3.3898,3.3898,3.3899,0,3.3731,3.3753,3.3766,3.3781,3.3793,3.3804,3.3813,3.3826,3.3836,3.3846,3.3856,3.3867,3.3872,3.3877,3.3882,3.3892,3.3894,3.3892,3.3904,3.3905,3.39,3.3897,3.3893,3.3893,3.3899,3.3899,3.3899,0,3.3739,3.3753,3.377,3.3787,3.3793,3.3801,3.3815,3.3825,3.3838,3.3845,3.3854,3.3863,3.3872,3.3875,3.3888,3.3886,3.3891,3.3897,3.3897,3.3899,3.3902,3.3898,3.3894,3.3894,3.39,3.39,3.3899,0,3.3732,3.3755,3.3767,3.3775,3.3796,3.3801,3.381,3.3824,3.3831,3.3843,3.3848,3.386,3.3867,3.3875,3.3886,3.3887,3.3897,3.3901,3.3902,3.3901,3.3904,3.3903,3.39,3.3907,3.3907,3.3907,3.3907,0,3.3735,3.3745,3.3765,3.3772,3.3782,3.3796,3.3805,3.3815,3.3827,3.3835,3.3845,3.3853,3.3867,3.3875,3.3884,3.3892,3.3895,3.39,3.3902,3.3899,3.3898,3.3903,3.3903,3.3907,3.3907,3.3907,3.3907,0,3.373,3.3744,3.3758,3.3777,3.3781,3.3788,3.3803,3.381,3.3819,3.383,3.3833,3.3848,3.3858,3.387,3.3884,3.3889,3.3897,3.39,3.3893,3.3894,3.3894,3.3893,3.3893,3.3893,3.3901,3.3901,3.39,0,3.3731,3.3739,3.3758,3.3765,3.3773,3.3784,3.3792,3.3805,3.3812,3.3827,3.3832,3.3843,3.3853,3.3869,3.388,3.389,3.3894,3.3893,3.3895,3.3891,3.3893,3.3892,3.3892,3.3892,3.3892,3.3892,3.3892,0,3.3731,3.3737,3.3749,3.3762,3.3771,3.3782,3.3793,3.3797,3.3812,3.382,3.3831,3.3839,3.3853,3.3863,3.3875,3.3882,3.3889,3.3891,3.3891,3.3888,3.3883,3.3885,3.389,3.3891,3.3891,3.3891,3.3891,3.3891,3.3728,3.3735,3.3749,3.3761,3.3771,3.378,3.3787,3.3798,3.3808,3.3821,3.3827,3.3838,3.3849,3.3866,3.3873,3.388,3.3882,3.3883,3.3884,3.3884,3.3882,3.3882,3.3882,3.3882,3.3882,3.3882,3.3882,0,3.3728,3.3737,3.3748,3.3763,3.3772,3.3778,3.379,3.3797,3.3806,3.3817,3.3826,3.3838,3.3848,3.3859,3.3869,3.3873,3.3876,3.3875,3.3875,3.3876,3.388,3.3878,3.3872,3.3872,3.3872,3.3872,3.3872,3.3872,3.3729,3.374,3.3747,3.3762,3.3771,3.3783,3.3789,3.3797,3.3805,3.3818,3.3827,3.3834,3.3845,3.3855,3.3864,3.3867,3.387,3.3868,3.3872,3.3875,3.3876,3.3877,3.3875,3.3869,3.3869,3.3867,3.3867,3.3867]}]]